Regional Weather Roundup
Issued by NWS

Home | Current Version | Previous Version | Graphics & Text | Print | Product List | Glossary Off
Versions: 1 2 3 4 5 6 7 8 9 10 11 12 13 14 15 16 17 18 19 20 21 22 23 24 25 26 27 28 29 30 31 32 33 34 35 36 37 38 39 40 41 42 43 44 45 46 47 48 49 50

000
ASUS43 KMKX 051220
RWRWI

WISCONSIN REGIONAL WEATHER ROUNDUP
NATIONAL WEATHER SERVICE MILWAUKEE/SULLIVAN WI
600 AM CST THU MAR 05 2015

NOTE: "FAIR" INDICATES FEW OR NO CLOUDS BELOW 12,000 FEET WITH NO
SIGNIFICANT WEATHER AND/OR OBSTRUCTIONS TO VISIBILITY.

WIZ001-002-006>008-014>016-023>028-051300-
NORTHWEST WISCONSIN

CITY           SKY/WX    TMP DP  RH WIND       PRES   REMARKS
SUPERIOR ARPT  PTCLDY   -14 -19  77 SW7       30.44R WCI -30
6HR MIN TEMP: -15; 6HR MAX TEMP:  -5;

ASHLAND        CLEAR    -11 -17  75 SW7       30.40R WCI -26
6HR MIN TEMP: -12; 6HR MAX TEMP:  -6;

HAYWARD        FAIR     -25 -32  69 CALM      30.38R
6HR MIN TEMP: -26; 6HR MAX TEMP: -17;

SIREN          PTCLDY   -22 -29  70 CALM      30.43R
6HR MIN TEMP: -22; 6HR MAX TEMP: -12;

CUMBERLAND     PTCLDY   -18 -24  76 CALM      30.38R
RICE LAKE      PTCLDY   -23 -29  72 CALM      30.42R
6HR MIN TEMP: -22; 6HR MAX TEMP:  -8;

CHETEK         PTCLDY   -19 -24  78 CALM      30.42R
6HR MIN TEMP: -19; 6HR MAX TEMP: -10;

LADYSMITH      CLEAR    -22 -29  72 CALM      30.39S
6HR MIN TEMP: -23; 6HR MAX TEMP:  -6;

EAU CLAIRE     CLEAR    -11 -18  71 SW3       30.43R
6HR MIN TEMP: -13; 6HR MAX TEMP:  -2;

MENOMONIE      CLEAR     -8 -15  71 W5        30.45R WCI -19
6HR MIN TEMP:  -8; 6HR MAX TEMP:  -1;

NEW RICHMOND   PTCLDY   -15 -21  77 CALM      30.44R
6HR MIN TEMP: -17; 6HR MAX TEMP:  -7;

OSCEOLA        CLEAR    -19 -24  75 CALM      30.48R
6HR MIN TEMP: -19; 6HR MAX TEMP:  -5;

$$

WIZ003>005-009-010-017-018-051300-
NORTH CENTRAL WISCONSIN

CITY           SKY/WX    TMP DP  RH WIND       PRES   REMARKS
MANITOWISH WTR CLEAR    -23 -29  74 CALM      30.28S
6HR MIN TEMP: -23; 6HR MAX TEMP:  -8;

ARBOR VITAE    CLEAR    -19 -25  73 CALM      30.29R
6HR MIN TEMP: -19; 6HR MAX TEMP:  -7;

WOODRUFF       CLEAR    -19 -25  73 CALM      30.29R
6HR MIN TEMP: -19; 6HR MAX TEMP:  -7;

RHINELANDER    CLEAR    -18 -23  77 CALM      30.29R
6HR MIN TEMP: -19; 6HR MAX TEMP:  -7;

EAGLE RIVER    CLEAR    -20 -27  70 CALM      30.27S
6HR MIN TEMP: -20; 6HR MAX TEMP:  -8;

LAND O LAKES   PTCLDY   -21 -27  72 CALM      30.27S
6HR MIN TEMP: -21; 6HR MAX TEMP:  -8;

PHILLIPS       PTCLDY   -24 -29  77 CALM      30.32S
6HR MIN TEMP: -24; 6HR MAX TEMP: -15;

TOMAHAWK       CLEAR    -22 -29  73 CALM      30.33R
6HR MIN TEMP: -24; 6HR MAX TEMP: -12;

MEDFORD        CLEAR    -14 -19  80 CALM      30.33R
6HR MIN TEMP: -17; 6HR MAX TEMP:  -8;

MERRILL        CLEAR    -21 -27  76 CALM      30.34R
6HR MIN TEMP: -21; 6HR MAX TEMP:  -5;

$$

WIZ029-030-035-036-043>047-051300-
CENTRAL WISCONSIN

CITY           SKY/WX    TMP DP  RH WIND       PRES   REMARKS
WAUSAU         CLEAR     -9 -16  71 NW8       30.35R WCI -25
6HR MIN TEMP:  -9; 6HR MAX TEMP:  -3;

MOSINEE        CLEAR    -11 -18  70 NW6       30.36R WCI -25
MARSHFIELD     CLEAR    -12 -19  71 NW7       30.36R WCI -27
6HR MIN TEMP: -12; 6HR MAX TEMP:  -4;

STEVENS POINT  CLEAR    -17 -22  79 CALM      30.39R
6HR MIN TEMP: -18; 6HR MAX TEMP:  -3;

WAUPACA        FAIR      -4 -13  63 W3        30.41R
6HR MIN TEMP:  -4; 6HR MAX TEMP:   4;

WAUTOMA        CLEAR    -13 -19  75 CALM      30.42R
6HR MIN TEMP: -14; 6HR MAX TEMP:   1;

WISC RAPIDS    CLEAR    -10 -17  71 CALM      30.41R
6HR MIN TEMP: -12; 6HR MAX TEMP:   1;

CAMP DOUGLAS   CLEAR     -8 -13  78 W5        30.42R WCI -19
6HR MIN TEMP:  -9; 6HR MAX TEMP:  -1;

$$

WIZ011>013-019>022-031-037>040-048>050-051300-
NORTHEAST WISCONSIN

CITY           SKY/WX    TMP DP  RH WIND       PRES   REMARKS
ANTIGO         PTCLDY   -19 -23  82 CALM      30.31R
6HR MIN TEMP: -21; 6HR MAX TEMP:  -7;

SHAWANO        CLEAR     -5 -14  67 CALM      30.40R
6HR MIN TEMP:  -5; 6HR MAX TEMP:   2;

OCONTO         CLEAR    -14 -19  79 CALM      30.40R
6HR MIN TEMP: -15; 6HR MAX TEMP:   1;

STURGEON BAY   CLEAR     -8 -17  65 W5        30.39S WCI -19
6HR MIN TEMP:  -6; 6HR MAX TEMP:   1;

GREEN BAY      CLEAR     -6 -13  71 NW8       30.40R WCI -21
6HR MIN TEMP:  -7; 6HR MAX TEMP:   0;

MANITOWOC      CLEAR     -5 -12  72 NW7       30.41R WCI -19
6HR MIN TEMP:  -5; 6HR MAX TEMP:   3;

APPLETON       CLEAR     -6 -17  59 W9        30.38R WCI -22
CLINTONVILLE   CLEAR     -6 -13  71 NW6       30.40R WCI -18
OSHKOSH        CLEAR     -4 -13  65 W5        30.40R WCI -15
6HR MIN TEMP:  -4; 6HR MAX TEMP:   4;

$$

WIZ032>034-041-042-053>061-051300-
SOUTHWEST WISCONSIN

CITY           SKY/WX    TMP DP  RH WIND       PRES   REMARKS
LA CROSSE      CLEAR     -3 -11  68 N5        30.48R WCI -13
6HR MIN TEMP:  -5; 6HR MAX TEMP:   3;

SPARTA         CLEAR    -14 -19  78 CALM      30.45R
6HR MIN TEMP: -14; 6HR MAX TEMP:   3;

VIROQUA        CLEAR     -5 -10  77 NW5       30.38R WCI -16
6HR MIN TEMP:  -8; 6HR MAX TEMP:   2;

BOSCOBEL       CLEAR     -9 -15  75 CALM      30.47R
6HR MIN TEMP: -10; 6HR MAX TEMP:   4;

PRAIRIE DU CHI CLEAR     -4 -12  67 CALM      30.48R
6HR MIN TEMP:  -4; 6HR MAX TEMP:   4;

PLATTEVILLE    CLEAR     -4 -10  77 CALM      30.42R
6HR MIN TEMP:  -6; 6HR MAX TEMP:   2;

$$

WIZ056-057-062-063-064-067-068-051300-
SOUTH CENTRAL WISCONSIN

CITY           SKY/WX    TMP DP  RH WIND       PRES   REMARKS
REEDSBURG      CLEAR     -4 -11  72 CALM      30.42R
6HR MIN TEMP:  -5; 6HR MAX TEMP:   4;

BARABOO/DELLS  CLEAR     -7 -14  71 CALM      30.41R
6HR MIN TEMP:  -7; 6HR MAX TEMP:   3;

LONE ROCK      CLEAR     -6 -10  83 W6        30.45R WCI -19
6HR MIN TEMP:  -7; 6HR MAX TEMP:   6;

MINERAL POINT  CLEAR     -2  -9  71 NW3       30.39R
MADISON        CLEAR     -3 -11  68 NW6       30.41R WCI -15
6HR MIN TEMP:  -5; 6HR MAX TEMP:   6;

MIDDLETON      CLEAR      0 -12  56 CALM      30.41R
6HR MIN TEMP:  -4; 6HR MAX TEMP:   6;

WATERTOWN      CLEAR     -1 -10  67 NW3       30.40R
6HR MIN TEMP:  -1; 6HR MAX TEMP:   7;

MONROE         PTCLDY     0  -8  71 NW7       30.38S WCI -13
JANESVILLE     CLEAR     -6 -11  77 CALM      30.41R
$$

WIZ051-052-058>065-066-070>072-051300-
SOUTHEAST WISCONSIN

CITY           SKY/WX    TMP DP  RH WIND       PRES   REMARKS
MILWAUKEE      PTCLDY     4 -10  52 NW3       30.40R
6HR MIN TEMP:   4; 6HR MAX TEMP:   9;

WAUKESHA       CLEAR     -2 -11  65 W6        30.40R WCI -14
MILWAUKEE/TIMM CLEAR      1 -11  55 N7        30.40S WCI -11
RACINE         PTCLDY     2 -11  54 NW8       30.41R WCI -12
6HR MIN TEMP:   2; 6HR MAX TEMP:   8;

BURLINGTON     PTCLDY   -11 -17  75 CALM      30.40R
6HR MIN TEMP: -12; 6HR MAX TEMP:  -1;

KENOSHA        PTCLDY    -3 -12  65 NW7       30.40R WCI -16
6HR MIN TEMP:  -8; 6HR MAX TEMP:   5;

FOND DU LAC    CLEAR     -3 -13  62 W6        30.40R WCI -15
6HR MIN TEMP:  -3; 6HR MAX TEMP:   4; 6HR PCP: TRACE;

SHEBOYGAN      CLEAR     -3 -13  62 W5        30.40R WCI -13
6HR MIN TEMP:  -4; 6HR MAX TEMP:   5;

WEST BEND      CLEAR      0 -11  60 NW3       30.39R
JUNEAU         CLEAR     -3 -11  69 CALM      30.41R
6HR MIN TEMP:  -4; 6HR MAX TEMP:   4;

$$

LSZ147-162-051300-
LAKE SUPERIOR

STATION/POSITION TIME  TEMP    WIND        PRES    WAVE
                       AIR SEA DIR/SP/G            HT/PER
                 (UTC) (F)     (DEG/KT/KT) (MB)    (FT/S)
DEVILS ISLAND    1200    4     270/  7/ 10 1030.6R
PORT WING        1100   -8     200/  8/ 10 1029.5
SAXON HARBOR     1140   -9     200/  7/ 10 1029.1R
$$

LMZ867-665-643>646-051300-
LAKE MICHIGAN

STATION/POSITION TIME  TEMP    WIND        PRES    WAVE


USA.gov is the U.S. government's official web portal to all federal, state and local government web resources and services.